Location: Newark
(48.1500°N, 2.9667°W)
Time: 21:00:37
(UTC+00:00)

A-11 Canister half - Pass Details

Date: 25 January 2020
Orbit: 1524 x 1684 km, 47.3° (Epoch: 19 February)

Event Time Altitude Azimuth Distance (km) Brightness Sun altitude
Rises 18:15:10 0° 235° (SW) 4,669 13.0 -12.5°
Reaches altitude 10° 18:18:12 10° 232° (SW) 3,696 12.1 -13.0°
Maximum altitude 18:27:21 64° 154° (SSE) 1,700 9.1 -14.5°
Enters shadow 18:34:18 20° 80° (E) 3,046 9.9 -15.7°
Drops below altitude 10° 18:36:47 10° 77° (ENE) 3,803 - -16.1°
Sets 18:39:57 0° 74° (ENE) 4,811 - -16.6°
